Nantucket, MA

5:46 AM EDT on September 26, 2017 (GMT -0400)
Nantucket Memorial

Weather History for KACK - February, 2012

Change the Weather History Date:

Wednesday, February 15, 2012

  Actual Average Record
Temperature  
Mean Temperature 44 °F -  
Max Temperature 46 °F 37 °F 51 °F (1949)
Min Temperature 39 °F 23 °F 7 °F (2015)
Degree Days  
Heating Degree Days 22    
Moisture  
Dew Point 41 °F    
Average Humidity 92    
Maximum Humidity 100    
Minimum Humidity 80    
Precipitation  
Precipitation 0.00 in - - ()
Sea Level Pressure  
Sea Level Pressure 30.16 in    
Wind  
Wind Speed 6 mph (NE)    
Max Wind Speed 8 mph    
Max Gust Speed -    
Visibility 9 miles    
Events Rain    
Averages and records for this station are not official NWS values.
T = Trace of Precipitation, MM = Missing Value Source: NWS Daily Summary

Daily Weather History Graph

Daily Weather History Graph

Search for Another Location

Airport or City:

Trip Planner

Search our weather history database for the weather conditions in past years. The results will help you decide how hot, cold, wet, or windy it might be!

Date:

Astronomy

Feb. 15, 2012 Rise Set
Actual Time 6:35 AM EST 5:13 PM EST
Civil Twilight 6:07 AM EST 5:42 PM EST
Nautical Twilight 5:35 AM EST 6:14 PM EST
Astronomical Twilight 5:03 AM EST 6:46 PM EST
Moon 1:27 AM EST (2/15) 11:04 AM EST (2/15)
Length of Visible Light 11h 34m
Length of Day
10h 37m
Last Quarter, 39% of the Moon is Illuminated
Feb 15
Last Quarter
Feb 21
New
Feb 29
First Quarter
Mar 8
Full
Mar 14
Last Quarter

Hourly Weather History & Observations

Time (EST) Temp. Windchill Dew Point Humidity Pressure Visibility Wind Dir Wind Speed Gust Speed Precip Events Conditions
12:53 AM 42.1 °F 37.1 °F 39.9 °F 92% 30.12 in 10.0 mi SSE 8.1 mph - N/A   Overcast
1:53 AM 42.1 °F 38.4 °F 39.9 °F 92% 30.12 in 10.0 mi SSE 5.8 mph - N/A   Overcast
2:53 AM 42.1 °F 39.2 °F 39.9 °F 92% 30.12 in 8.0 mi SSE 4.6 mph - 0.00 in Rain Light Rain
3:53 AM 41.0 °F 38.0 °F 39.9 °F 96% 30.12 in 10.0 mi ESE 4.6 mph - 0.00 in   Overcast
4:53 AM 42.1 °F 37.7 °F 39.9 °F 92% 30.12 in 10.0 mi ESE 6.9 mph - N/A   Overcast
5:53 AM 42.1 °F 37.7 °F 41.0 °F 96% 30.12 in 9.0 mi ESE 6.9 mph - N/A   Overcast
6:53 AM 41.0 °F 38.0 °F 41.0 °F 100% 30.13 in 9.0 mi East 4.6 mph - N/A   Overcast
7:53 AM 43.0 °F 41.3 °F 42.1 °F 97% 30.15 in 10.0 mi East 3.5 mph - N/A   Overcast
8:53 AM 45.0 °F 42.6 °F 43.0 °F 93% 30.15 in 10.0 mi ESE 4.6 mph - N/A   Overcast
9:32 AM 46.4 °F 44.3 °F 44.6 °F 93% 30.14 in 10.0 mi East 4.6 mph - N/A   Overcast
9:53 AM 46.0 °F 43.9 °F 44.1 °F 93% 30.14 in 10.0 mi East 4.6 mph - N/A   Overcast
10:53 AM 46.9 °F - 43.0 °F 86% 30.14 in 10.0 mi East 3.5 mph - N/A   Overcast
11:53 AM 46.9 °F - 42.1 °F 83% 30.14 in 10.0 mi East 3.5 mph - N/A   Overcast
12:53 PM 46.0 °F - 42.1 °F 86% 30.13 in 10.0 mi Calm Calm - N/A   Overcast
1:53 PM 46.9 °F - 42.1 °F 83% 30.13 in 10.0 mi SSE 3.5 mph - N/A   Overcast
2:53 PM 46.9 °F - 41.0 °F 80% 30.13 in 10.0 mi NNW 6.9 mph - N/A   Overcast
3:53 PM 45.0 °F 41.8 °F 42.1 °F 90% 30.14 in 10.0 mi NNE 5.8 mph - N/A   Overcast
4:53 PM 44.1 °F 42.5 °F 41.0 °F 89% 30.16 in 10.0 mi NNW 3.5 mph - N/A   Overcast
5:53 PM 42.1 °F 40.2 °F 39.9 °F 92% 30.17 in 7.0 mi NNE 3.5 mph - 0.00 in Rain Light Rain
6:53 PM 42.1 °F 37.7 °F 39.9 °F 92% 30.19 in 8.0 mi NNW 6.9 mph - 0.00 in Rain Light Rain
7:02 PM 42.8 °F 38.6 °F 39.2 °F 87% 30.19 in 10.0 mi NNW 6.9 mph - 0.00 in   Overcast
7:53 PM 41.0 °F 35.8 °F 39.9 °F 96% 30.19 in 6.0 mi North 8.1 mph - 0.00 in   Overcast
8:00 PM 41.0 °F 35.8 °F 39.2 °F 93% 30.19 in 6.0 mi North 8.1 mph - N/A   Overcast
8:39 PM 41.0 °F 35.8 °F 39.2 °F 93% 30.20 in 7.0 mi North 8.1 mph - 0.00 in   Overcast
8:53 PM 41.0 °F 35.8 °F 39.9 °F 96% 30.20 in 8.0 mi North 8.1 mph - 0.00 in   Overcast
9:53 PM 41.0 °F 38.0 °F 39.9 °F 96% 30.21 in 10.0 mi North 4.6 mph - N/A   Overcast
10:36 PM 41.0 °F 38.0 °F 39.2 °F 93% 30.21 in 10.0 mi NNW 4.6 mph - N/A   Overcast
10:53 PM 41.0 °F 37.1 °F 39.0 °F 93% 30.21 in 10.0 mi North 5.8 mph - N/A   Overcast
11:02 PM 41.0 °F 37.1 °F 39.2 °F 93% 30.21 in 8.0 mi North 5.8 mph - N/A   Overcast
11:53 PM 39.9 °F 36.7 °F 39.0 °F 97% 30.22 in 7.0 mi NNW 4.6 mph - N/A   Overcast